Header for Extended Forecast Station List Page

Search by: ID | Name | Date | Parm | Value | Avg | % Avg
Sort by: ID | Name | Date | Parm | Value | Avg | % Avg

Enter search or view all records.

Click on id for station plot
#IDNameDateParmValueAvg% Avg
0LYDM8KOOTENAI-LIBBY DAM01-23-2023INFLOW (KAF)1386192472
1LEOI1KOOTENAI-AT LEONIA01-23-2023DISCHARGE (KAF)25442352108
2BFEI1KOOTENAI-AT BONNERS FERRY01-23-2023STAGE (FT)MMM
3FCFM8NF FLATHEAD-NEAR COLUMBIA FALLS01-23-2023DISCHARGE (KAF)36766056
4WGCM8MF FLATHEAD-NEAR WEST GLACIER01-23-2023DISCHARGE (KAF)40962865
5HHWM8SF FLATHEAD-HUNGRY HORSE DAM01-23-2023INFLOW (KAF)70989579
6CFMM8FLATHEAD-AT COLUMBIA FALLS01-23-2023DISCHARGE (KAF)1645217776
7DLGM8CLARK FORK-AT DEER LODGE01-23-2023DISCHARGE (KAF)426070
8DRMM8CLARK FORK-NR DRUMMOND01-23-2023DISCHARGE (KAF)11916572
9RCCM8ROCK CREEK-NEAR CLINTON01-23-2023DISCHARGE (KAF)6011453
10BONM8BLACKFOOT-NEAR BONNER01-23-2023DISCHARGE (KAF)32640481
11ABOM8CLARK FORK-ABOVE MISSOULA01-23-2023DISCHARGE (KAF)52472472
12BITM8BITTERROOT-NEAR MISSOULA01-23-2023DISCHARGE (KAF)24752547
13BELM8CLARK FORK-BELOW MISSOULA01-23-2023DISCHARGE (KAF)772127760
14STRM8ST. REGIS-NEAR ST. REGIS01-23-2023DISCHARGE (KAF)12017369
15SRGM8CLARK FORK-AT ST REGIS01-23-2023DISCHARGE (KAF)1035171760
16KERM8FLATHEAD-SELI’Š KSANKA QLISPE’ DAM01-23-2023INFLOW (KAF)1852278666
17NOXM8CLARK FORK-NOXON RAPIDS DAM01-23-2023INFLOW (KAF)3072473765
18CABI1CLARK FORK-CABINET GORGE DAM01-23-2023INFLOW (KAF)3427540663
19PRTI1PRIEST-NEAR PRIEST RIVER01-23-2023DISCHARGE (KAF)42951883
20ALFW1PEND OREILLE-ALBENI FALLS DAM01-23-2023INFLOW (KAF)4478638270
21HOPI1PEND OREILLE-PEND OREILLE LAKE NR HOPE01-23-2023LAKE ELEVATION (FT)MMM
22COEI1COEUR D ALENE-COEUR D ALENE LAKE01-23-2023INFLOW (KAF)2122239189
23SPOW1SPOKANE-AT SPOKANE01-23-2023DISCHARGE (KAF)1936242180
24LLKW1SPOKANE-AT LONGLAKE01-23-2023INFLOW (KAF)2274275683
25SATI1ST MARIES-NEAR SANTA01-23-2023DISCHARGE (KAF)138133104
26SJMI1ST JOE-AT ST MARIES01-23-2023STAGE (FT)MMM
27CIBW1COLUMBIA-AT INTL BOUNDARY01-23-2023DISCHARGE (KAF)141302007470
28LAUW1KETTLE-AT LAURIER01-23-2023DISCHARGE (KAF)57597259
29GCDW1COLUMBIA-GRAND COULEE DAM01-23-2023INFLOW (KAF)170842346173
30CHJW1COLUMBIA-CHIEF JOSEPH DAM01-23-2023INFLOW (KAF)180532571970
31TONW1OKANOGAN-NEAR TONASKET01-23-2023DISCHARGE (KAF)43774759
32PATW1METHOW-NEAR PATEROS01-23-2023DISCHARGE (KAF)24339162
33WELW1COLUMBIA-WELLS DAM01-23-2023INFLOW (KAF)187112705369
34CHDW1CHELAN-LAKE CHELAN DAM01-23-2023INFLOW (KAF)29746963
35RRHW1COLUMBIA-ROCKY REACH DAM01-23-2023INFLOW (KAF)190472762669
36ARDW1ENTIAT-NEAR ARDENVOIR01-23-2023DISCHARGE (KAF)497764
37PESW1WENATCHEE-AT PESHASTIN01-23-2023DISCHARGE (KAF)55872277
38WANW1COLUMBIA-WANAPUM DAM01-23-2023INFLOW (KAF)195942855769
39PRWW1COLUMBIA-PRIEST RAPIDS DAM01-23-2023INFLOW (KAF)195922862668
40KEDW1YAKIMA-KEECHELUS LAKE01-23-2023INFLOW (KAF)10088113
41KADW1KACHESS-KACHESS DAM01-23-2023INFLOW (KAF)8884105
42EASW1YAKIMA-AT EASTON01-23-2023DISCHARGE (KAF)849984
43CLUW1CLE ELUM-CLE ELUM LAKE01-23-2023INFLOW (KAF)232230101
44TNAW1TEANAWAY-BELOW FORKS01-23-2023DISCHARGE (KAF)127120106
45UMTW1YAKIMA-AT UMTANUM01-23-2023DISCHARGE (KAF)48753691
46BUDW1BUMPING-BUMPING LAKE DAM01-23-2023INFLOW (KAF)6768100
47CLFW1NACHES-NEAR CLIFFDEL01-23-2023DISCHARGE (KAF)20525082
48RILW1TIETON-RIMROCK LAKE NEAR RIMROCK01-23-2023INFLOW (KAF)10711990
49NACW1NACHES-NEAR NACHES01-23-2023DISCHARGE (KAF)28435979
50PARW1YAKIMA-NEAR PARKER01-23-2023DISCHARGE (KAF)48769470
51KIOW1YAKIMA-AT KIONA01-23-2023DISCHARGE (KAF)767101076
52IPDI1HENRYS FORK-ISLAND PARK DAM01-23-2023INFLOW (KAF)11514182
53CHEI1FALL RIVER-NEAR CHESTER01-23-2023DISCHARGE (KAF)17020284
54ANTI1HENRYS FORK-AT ST. ANTHONY01-23-2023DISCHARGE (KAF)43450186
55TEAI1TETON-NEAR ST. ANTHONY01-23-2023DISCHARGE (KAF)13116679
56REXI1HENRYS FORK-AT REXBURG01-23-2023DISCHARGE (KAF)46554785
57JLKW4SNAKE-JACKSON LAKE AT DAM01-23-2023INFLOW (KAF)25430384
58JKSW4SNAKE-NEAR JACKSON01-23-2023DISCHARGE (KAF)39655671
59ALPW4SNAKE-NEAR ALPINE01-23-2023DISCHARGE (KAF)53072273
60PLDI1SF SNAKE-PALISADES DAM01-23-2023INFLOW (KAF)925119677
61HEII1SNAKE-NEAR HEISE01-23-2023DISCHARGE (KAF)12161140107
62RIDI1WILLOW CREEK-RIRIE DAM01-23-2023INFLOW (KAF)3734109
63SIFI1SNAKE-AB EAGLE ROCK NR IDAHO FALLS01-23-2023DISCHARGE (KAF)12691158110
64SHYI1SNAKE-NEAR SHELLEY01-23-2023DISCHARGE (KAF)11991118107
65SNAI1SNAKE-AT BLACKFOOT01-23-2023DISCHARGE (KAF)1017849120
66BFTI1SNAKE-NEAR BLACKFOOT01-23-2023DISCHARGE (KAF)1000846118
67PIHI1PORTNEUF-AT POCATELLO01-23-2023DISCHARGE (KAF)737399
68AFRI1SNAKE-AMERICAN FALLS RESERVOIR01-23-2023INFLOW (KAF)16391497109
69MILI1SNAKE-AT MILNER01-23-2023DISCHARGE (KAF)485488
70HOTI1BRUNEAU-NEAR HOT SPRINGS01-23-2023DISCHARGE (KAF)6810267
71SWAI1SNAKE-BELOW SWAN FALLS01-23-2023DISCHARGE (KAF)1767189593
72HWRI1BIG LOST-AT HOWELL RANCH NEAR CHILLY01-23-2023DISCHARGE (KAF)264263
73MACI1BIG LOST-MACKAY RESERVOIR NEAR MACKAY01-23-2023INFLOW (KAF)314078
74HALI1BIG WOOD-AT HAILEY01-23-2023DISCHARGE (KAF)569062
75MAGI1BIG WOOD-MAGIC DAM01-23-2023INFLOW (KAF)8010675
76LWRI1LITTLE WOOD-LITTLE WOOD DAM01-23-2023INFLOW (KAF)4837130
77OWYO3OWYHEE-OWYHEE DAM01-23-2023INFLOW (KAF)471254185
78ARAI1SF BOISE-ANDERSON RANCH DAM01-23-2023INFLOW (KAF)272260105
79LUCI1BOISE-LUCKY PEAK DAM01-23-2023INFLOW (KAF)780655119
80BIGI1BOISE-AT GLENWOOD BRIDGE01-23-2023DISCHARGE (KAF)310153202
81PARI1BOISE-NEAR PARMA01-23-2023DISCHARGE (KAF)379230164
82WRMO3MALHEUR-WARM SPRINGS DAM01-23-2023INFLOW (KAF)697691
83BERO3MALHEUR-AGENCY VALLEY DAM01-23-2023INFLOW (KAF)4747100
84BULO3BULLY CREEK-BULLY CREEK DAM01-23-2023INFLOW (KAF)535992
85CSDI1NF PAYETTE-CASCADE DAM01-23-2023INFLOW (KAF)22729278
86DEDI1DEADWOOD-NEAR LOWMAN01-23-2023INFLOW (KAF)546484
87EMMI1PAYETTE-NEAR EMMETT01-23-2023DISCHARGE (KAF)59576877
88WSRI1WEISER-NEAR WEISER01-23-2023DISCHARGE (KAF)36637598
89WEII1SNAKE-AT WEISER01-23-2023DISCHARGE (KAF)3399367692
90BRNI1SNAKE-BROWNLEE DAM01-23-2023INFLOW (KAF)3797407193
91WHBI1SALMON-AT WHITEBIRD01-23-2023DISCHARGE (KAF)1756270065
92TRYO3GRANDE RONDE-TROY01-23-2023DISCHARGE (KAF)993105394
93ANAW1SNAKE-NEAR ANATONE01-23-2023DISCHARGE (KAF)6349896071
94ORFI1CLEARWATER-AT OROFINO01-23-2023DISCHARGE (KAF)2382277586
95DWRI1NF CLEARWATER-DWORSHAK DAM01-23-2023INFLOW (KAF)18641867100
96SPDI1CLEARWATER-AT SPALDING01-23-2023DISCHARGE (KAF)3889448887
97LGDW1SNAKE-LOWER GRANITE DAM01-23-2023INFLOW (KAF)102401381674
98LGSW1SNAKE-LITTLE GOOSE DAM01-23-2023INFLOW (KAF)102431386574
99LMNW1SNAKE-LOWER MONUMENTAL DAM01-23-2023INFLOW (KAF)105441403975
100IHDW1SNAKE-ICE HARBOR DAM01-23-2023INFLOW (KAF)105511405575
101TCHW1WALLA WALLA-NEAR TOUCHET01-23-2023DISCHARGE (KAF)233231101
102MCDW1COLUMBIA-MCNARY DAM01-23-2023INFLOW (KAF)310514384771
103GIBO3UMATILLA-NEAR GIBBON01-23-2023DISCHARGE (KAF)869096
104PDTO3UMATILLA-AT PENDLETON01-23-2023DISCHARGE (KAF)19920398
105MYKO3MCKAY CREEK-NEAR PILOT ROCK01-23-2023DISCHARGE (KAF)344478
106UMAO3UMATILLA-NEAR UMATILLA01-23-2023DISCHARGE (KAF)17118294
107MONO3NF JOHN DAY-AT MONUMENT01-23-2023DISCHARGE (KAF)41054176
108SERO3JOHN DAY-AT SERVICE CK01-23-2023DISCHARGE (KAF)57777874
109JDAO3COLUMBIA-JOHN DAY DAM01-23-2023INFLOW (KAF)330284595072
110MODO3DESCHUTES-AT MOODY NR BIGGS01-23-2023DISCHARGE (KAF)14961465102
111TDAO3COLUMBIA-THE DALLES DAM01-23-2023INFLOW (KAF)335274645972
112PITW1KLICKITAT-NEAR PITT01-23-2023DISCHARGE (KAF)47949397
113HODO3HOOD-NEAR TUCKER BRIDGE01-23-2023DISCHARGE (KAF)280268105
114UNDW1WHITE SALMON-NEAR UNDERWOOD01-23-2023DISCHARGE (KAF)339340100
115BONO3COLUMBIA-BONNEVILLE DAM01-23-2023INFLOW (KAF)346184850771